[[{"header":{"parameterUnit":"m.s-1","parameterCategory":1,"la1":30.2991,"la2":30.254,"lo1":-89.0895,"lo2":-89.0444,"dy":0.0017,"dx":0.0017,"nx":28,"ny":28,"refTime":"2023-11-14T09:00:00:Z","depth":0,"parameterNumber":2,"parameterNumberName":"U-component_of_WINDS"},"data":[0,0,0,0,0,0,0,0,0,0,0,0,0,0,0,0,0,0,0,0,0,0,0,0,0,0,0,0,0,0,0,0,0,0,0,0,0,0,0,0,0,0,0,0,0,0,0,0,0,0,0,0,0,0,0,0,0,0,-7.8321,-7.8323,0,-7.8519,-7.8521,-7.8523,-7.8361,-7.8354,-7.8348,-7.8341,-7.8548,-7.856,-7.8572,0,0,0,0,0,0,0,0,0,0,0,0,0,-7.7808,-7.7818,-7.8321,-7.8323,-7.8326,-7.8518,-7.8521,-7.8524,-7.8362,-7.8354,-7.8346,-7.8338,-7.8544,-7.8558,-7.8573,0,0,0,0,0,0,0,0,0,0,0,0,0,-7.8021,-7.7822,-7.832,-7.8268,-7.8266,-7.8518,-7.8521,-7.8524,-7.8364,-7.8354,-7.8344,-7.8334,-7.854,-7.8557,-7.8575,-7.889,0,0,-7.8629,-7.8637,0,0,0,0,0,0,0,0,-7.8009,-7.804,-7.8273,-7.8272,-7.827,-7.8404,-7.8416,-7.8647,-7.8367,-7.8327,-7.8341,-7.8329,-7.8509,-7.8529,-7.8588,-7.8899,-7.8908,-7.8631,-7.8641,-7.8649,-7.8654,0,0,0,0,0,0,0,-7.7995,-7.8031,-7.8399,-7.8277,-7.8275,-7.8237,-7.8255,-7.8459,-7.8473,-7.833,-7.8318,-7.8344,-7.8506,-7.8572,-7.8592,-7.8911,-7.863,-7.8646,-7.8657,-7.8664,-7.9494,-7.9505,0,0,0,0,0,0,-7.7984,-7.8019,-7.8393,-7.8405,-7.8111,-7.8254,-7.8275,-7.8372,-7.847,-7.8476,-7.8352,-7.8335,-7.8546,-7.8572,-7.8599,-7.8977,-7.8649,-7.8666,-7.8676,-7.9483,-7.9496,-7.9509,0,0,0,0,0,0,-7.7974,-7.8019,-7.8385,-7.8209,-7.8253,-7.8274,-7.8384,-7.8381,-7.8446,-7.8488,-7.849,-7.8416,-7.8539,-7.8574,-7.8819,-7.8981,-7.8674,-7.869,-7.9469,-7.9487,-7.9502,-7.9734,0,0,0,0,0,0,-7.796,-7.8016,-7.8135,-7.8213,-7.8263,-7.8601,-7.8393,-7.8392,-7.8477,-7.8457,-7.8548,-7.8554,-7.8534,-7.8793,-7.8837,-7.9,-7.8704,-7.9455,-7.9477,-7.9497,-7.9712,-7.9757,-7.9795,0,0,0,0,0,-7.7942,-7.8193,-7.8142,-7.8188,-7.8412,-7.861,-7.8639,-7.861,-7.8491,-7.8611,-7.8638,-7.8551,-7.8956,-7.882,-7.8867,-7.9039,-7.9444,-7.9471,-7.9495,-7.9693,-7.9748,-7.9794,0,0,0,0,0,0,-7.8135,-7.8202,-7.8146,-7.8429,-7.8515,-7.8583,-7.8734,-7.8668,-7.8791,-7.8767,-7.8726,-7.8749,-7.9007,-7.9047,-7.8894,-7.935,-7.9181,-7.9218,-7.9315,-7.9368,-7.9409,-7.9395,-7.8719,0,0,0,0,0,-7.821,-7.8364,-7.8415,-7.866,-7.8706,-7.8713,-7.8798,-7.8768,-7.8856,-7.8892,-7.8936,-7.9027,-7.9174,-7.9273,-7.9411,-7.9716,-7.9735,-7.9857,-7.9899,-7.9933,-7.9966,-8.0133,-8.0189,-7.9592,-7.9592,-7.9592,0,0,-7.8367,-7.8423,-7.8523,-7.87,-7.8763,-7.8926,-7.8745,-7.8924,-7.9045,-7.892,-7.9154,-7.9191,-7.9288,-7.9566,-7.969,-7.9607,-8.0134,-7.9965,-7.9992,-8.0007,-8.0165,-8.0222,-8.0272,-7.961,-7.9607,-7.9604,0,0,-7.8737,-7.8794,-7.9006,-7.9073,-7.917,-7.9173,-7.9224,-7.9302,-7.9321,-7.9555,-7.9466,-7.961,-7.9864,-7.9938,-8.001,-8.041,-8.0336,-8.0456,-8.0675,-8.0838,-8.0885,-8.0927,-8.1073,-8.1125,-8.0488,-8.0489,-8.0489,0,-7.8921,-7.9162,-7.9123,-7.931,-7.9392,-7.9284,-7.95,-7.9567,-7.9705,-7.9765,-7.9669,-7.9988,-8.0046,-8.0341,-8.0438,-8.0499,-8.0558,-8.0447,-8.0881,-8.0922,-8.0961,-8.1099,-8.1154,-8.0503,-8.0501,-8.05,-8.0498,0,-7.9384,-7.9553,-7.9712,-7.9848,-7.9947,-8.0147,-8.0141,-8.0246,-8.0208,-8.0222,-8.0464,-8.053,-8.0681,-8.0748,-8.0712,-8.1039,-8.0985,-8.0886,-8.0716,-8.1032,-8.1162,-8.1215,-8.0523,-8.0518,-8.0514,-8.051,0,0,-7.9883,-7.9995,-8.0054,-8.0116,-8.0216,-8.0346,-8.0542,-8.0688,-8.0781,-8.088,-8.1046,-8.1264,-8.1174,-8.1255,-8.1227,-8.137,-8.1687,-8.1254,-8.1256,-8.1335,-8.2055,-8.2131,-8.2193,-8.1637,-8.1647,-8.1655,-8.2048,0,-8.0259,-8.06,-8.0571,-8.0894,-8.1051,-8.0952,-8.1123,-8.1205,-8.1223,-8.136,-8.1381,-8.1538,-8.1405,-8.1454,-8.1591,-8.162,-8.1832,-8.159,-8.1794,-8.1802,-8.1775,-8.226,-8.234,-8.2708,-8.2098,-8.2106,-8.2113,0,-8.0745,-8.0861,-8.12,-8.1278,-8.1343,-8.1497,-8.163,-8.1761,-8.1852,-8.1856,-8.1948,-8.1895,-8.2096,-8.1919,-8.2196,-8.2033,-8.2115,-8.2142,-8.2155,-8.2175,-8.1978,-8.2296,-8.2824,-8.288,-8.2192,-8.2185,-8.218,0,-8.1078,-8.1319,-8.1553,-8.1608,-8.1705,-8.1816,-8.1862,-8.1942,-8.2033,-8.215,-8.2208,-8.2347,-8.2424,-8.2534,-8.2522,-8.2394,-8.2806,-8.2627,-8.2817,-8.2818,-8.291,-8.2905,-8.3461,-8.2958,-8.2957,-8.2956,-8.2955,0,-8.1504,-8.1716,-8.1704,-8.1849,-8.2084,-8.205,-8.2285,-8.2317,-8.239,-8.2541,-8.2463,-8.2607,-8.2581,-8.2725,-8.2717,-8.295,-8.2984,-8.2995,-8.2991,-8.3004,-8.3003,-8.3059,-8.3034,-8.2971,-8.2968,-8.2965,-8.2962,0,-8.1916,-8.1917,-8.2167,-8.2237,-8.226,-8.2431,-8.2493,-8.2631,-8.2642,-8.2835,-8.2878,-8.2898,-8.3064,-8.3062,-8.3251,-8.3246,-8.3532,-8.3497,-8.3502,-8.3496,-8.3687,-8.367,-8.4301,-8.4383,-8.3824,-8.3829,-8.3834,0,-8.2189,-8.235,-8.2439,-8.2534,-8.2586,-8.274,-8.2832,-8.2805,-8.2904,-8.3021,-8.3146,-8.3304,-8.343,-8.37,-8.3733,-8.3878,-8.3848,-8.4059,-8.387,-8.3879,-8.3855,-8.3847,-8.3865,-8.4097,-8.4104,-8.4109,-8.4113,0,-8.2675,-8.2667,-8.2802,-8.2939,-8.3051,-8.3157,-8.3255,-8.3338,-8.3321,-8.3438,-8.3606,-8.3703,-8.3896,-8.4056,-8.4196,-8.4245,-8.4179,-8.4172,-8.4224,-8.424,-8.4238,-8.4245,-8.3606,-8.4158,-8.4154,-8.415,-8.4148,-8.4146,-8.3028,-8.3167,-8.3252,-8.3406,-8.3476,-8.357,-8.3703,-8.3732,-8.3872,-8.4026,-8.4002,-8.4191,-8.428,-8.4461,-8.4522,-8.4671,-8.4598,-8.4672,-8.4692,-8.4712,-8.4734,-8.4212,-8.4696,-8.4695,-8.4694,-8.4693,-8.4692,0,-8.3512,-8.3561,-8.3703,-8.3842,-8.3964,-8.3888,-8.3993,-8.4101,-8.4268,-8.4355,-8.448,-8.4676,-8.483,-8.4875,-8.5025,-8.5136,-8.511,-8.5177,-8.517,-8.5183,-8.479,-8.4731,-8.5196,-8.5196,-8.5196,-8.5196,-8.5196,-8.5196,-8.3778,-8.4011,-8.4014,-8.4282,-8.4329,-8.4513,-8.458,-8.4667,-8.4737,-8.4958,-8.5086,-8.5114,-8.5186,-8.5341,-8.548,-8.549,-8.555,-8.5631,-8.5629,-8.5261,-8.5211,-8.5162,-8.5107,-8.5643,-8.5644,-8.6009,-8.6013,-8.6015]},{"header":{"parameterUnit":"m.s-1","parameterCategory":1,"la1":30.2991,"la2":30.254,"lo1":-89.0895,"lo2":-89.0444,"dy":0.0017,"dx":0.0017,"nx":28,"ny":28,"refTime":"2023-11-14T09:00:00:Z","depth":0,"parameterNumber":3,"parameterNumberName":"V-component_of_WINDS"},"data":[0,0,0,0,0,0,0,0,0,0,0,0,0,0,0,0,0,0,0,0,0,0,0,0,0,0,0,0,0,0,0,0,0,0,0,0,0,0,0,0,0,0,0,0,0,0,0,0,0,0,0,0,0,0,0,0,0,0,-3.0142,-3.0141,0,-3.0028,-3.0027,-3.0025,-2.9915,-2.9914,-2.9912,-2.9911,-2.9793,-2.9791,-2.979,0,0,0,0,0,0,0,0,0,0,0,0,0,-3.0264,-3.0262,-3.0143,-3.0141,-3.014,-3.0028,-3.0027,-3.0025,-2.9915,-2.9913,-2.9912,-2.991,-2.9794,-2.9792,-2.9789,0,0,0,0,0,0,0,0,0,0,0,0,0,-3.0186,-3.0261,-3.0143,-3.0071,-3.0064,-3.0028,-3.0027,-3.0025,-2.9916,-2.9913,-2.9911,-2.9909,-2.9795,-2.9792,-2.9789,-2.9815,0,0,-2.9781,-2.978,0,0,0,0,0,0,0,0,-3.0191,-3.0182,-3.0083,-3.0076,-3.0068,-2.9984,-3.0026,-2.9954,-2.9916,-2.9972,-2.9911,-2.9908,-2.9858,-2.985,-2.9833,-2.9809,-2.9804,-2.9781,-2.9779,-2.9778,-2.9777,0,0,0,0,0,0,0,-3.0196,-3.0186,-3.0097,-3.0082,-3.0073,-3.0044,-3.0031,-3.0012,-2.9928,-2.9967,-2.9959,-2.9947,-2.9854,-2.9836,-2.983,-2.9803,-2.9781,-2.9778,-2.9777,-2.9776,-2.979,-2.9792,0,0,0,0,0,0,-3.0213,-3.0191,-3.0101,-3.0094,-3.0125,-3.0044,-3.0029,-3.0013,-2.9928,-2.9913,-2.9948,-2.9942,-2.9842,-2.9833,-2.9825,-2.9847,-2.9778,-2.9775,-2.9774,-2.9788,-2.979,-2.9793,0,0,0,0,0,0,-3.0216,-3.0206,-3.0105,-3.014,-3.0125,-3.0044,-3.0027,-3.0012,-2.9994,-2.9914,-2.9899,-2.9946,-2.984,-2.9829,-2.9817,-2.9842,-2.9774,-2.9772,-2.9786,-2.9789,-2.9792,-2.9893,0,0,0,0,0,0,-3.022,-3.0208,-3.0217,-3.0141,-3.0124,-3.0101,-3.0028,-3.0011,-2.999,-2.998,-2.9908,-2.9894,-2.9837,-2.9822,-2.9815,-2.9837,-2.9769,-2.9783,-2.9787,-2.9791,-2.9888,-2.99,-2.991,0,0,0,0,0,-3.0224,-3.0251,-3.0218,-3.0208,-3.0135,-3.0103,-3.0092,-3.0027,-2.9992,-3.0001,-2.9949,-2.9896,-2.984,-2.9822,-2.9813,-2.9834,-2.9781,-2.9786,-2.979,-2.9883,-2.9897,-2.991,0,0,0,0,0,0,-3.0333,-3.024,-3.0203,-3.0206,-3.0163,-3.0084,-3.0093,-3.0045,-3.0011,-3.0003,-2.9922,-2.9907,-2.9904,-2.9868,-2.9849,-2.9853,-2.9803,-2.9806,-2.9877,-2.989,-2.9901,-2.9909,-2.9767,0,0,0,0,0,-3.0357,-3.034,-3.0259,-3.027,-3.025,-3.0175,-3.0159,-3.0112,-3.0064,-3.0045,-2.9992,-2.9948,-2.9919,-2.9903,-2.9873,-2.9882,-2.9863,-2.9892,-2.9903,-2.9912,-2.9916,-2.9915,-2.9926,-2.9808,-2.9808,-2.9807,0,0,-3.0407,-3.0354,-3.0348,-3.029,-3.0251,-3.0233,-3.0161,-3.0146,-3.0131,-3.0043,-3.0028,-2.9988,-2.9932,-2.993,-2.9927,-2.99,-2.9944,-2.9918,-2.9927,-2.9924,-2.9921,-2.9932,-2.9942,-2.9811,-2.981,-2.981,0,0,-3.0489,-3.0448,-3.0451,-3.0413,-3.0354,-3.0304,-3.0305,-3.0233,-3.0202,-3.0186,-3.0118,-3.0099,-3.0054,-3.0016,-2.9991,-3.0055,-3.0004,-3.0047,-3.0106,-3.0106,-3.0115,-3.0123,-3.0143,-3.0152,-3.0051,-3.0051,-3.0051,0,-3.0559,-3.053,-3.0459,-3.0447,-3.0422,-3.034,-3.0341,-3.0308,-3.0243,-3.0227,-3.0198,-3.0136,-3.0093,-3.008,-3.0095,-3.0078,-3.0075,-3.0055,-3.0119,-3.0126,-3.0133,-3.0152,-3.016,-3.0057,-3.0056,-3.0055,-3.0055,0,-3.0617,-3.0598,-3.0607,-3.0545,-3.0521,-3.0517,-3.0443,-3.0427,-3.0382,-3.0334,-3.0317,-3.0262,-3.0218,-3.0212,-3.0168,-3.0191,-3.0176,-3.0135,-3.0083,-3.0151,-3.0167,-3.0174,-3.0064,-3.0062,-3.0061,-3.0059,0,0,-3.0765,-3.0662,-3.0667,-3.0636,-3.0564,-3.0548,-3.0538,-3.0494,-3.0481,-3.0439,-3.0427,-3.0389,-3.0348,-3.032,-3.027,-3.0271,-3.0322,-3.0228,-3.0225,-3.0246,-3.0342,-3.0373,-3.0383,-3.0288,-3.0289,-3.029,-3.0346,0,-3.0833,-3.0811,-3.0746,-3.0743,-3.0723,-3.0643,-3.0634,-3.0588,-3.0543,-3.0518,-3.0468,-3.0441,-3.0392,-3.0373,-3.037,-3.0317,-3.034,-3.0312,-3.0275,-3.0275,-3.029,-3.0391,-3.0425,-3.048,-3.0352,-3.0353,-3.0354,0,-3.0911,-3.0872,-3.0867,-3.0794,-3.0783,-3.0776,-3.0729,-3.0707,-3.0653,-3.0619,-3.0586,-3.053,-3.0514,-3.0466,-3.0441,-3.0423,-3.0404,-3.0375,-3.0375,-3.0369,-3.0318,-3.0386,-3.0496,-3.0504,-3.0363,-3.0363,-3.0362,0,-3.1017,-3.0964,-3.0953,-3.093,-3.0844,-3.0841,-3.0805,-3.0748,-3.0725,-3.0684,-3.0668,-3.0626,-3.0603,-3.057,-3.0504,-3.0476,-3.0485,-3.0433,-3.0455,-3.0457,-3.0461,-3.0461,-3.0568,-3.0451,-3.0451,-3.045,-3.045,0,-3.11,-3.11,-3.0999,-3.0993,-3.0989,-3.0913,-3.0911,-3.0867,-3.0817,-3.0799,-3.0728,-3.0713,-3.0627,-3.0601,-3.0549,-3.0534,-3.0525,-3.0496,-3.0482,-3.0502,-3.0505,-3.0488,-3.0481,-3.0453,-3.0452,-3.0452,-3.0451,0,-3.1218,-3.1151,-3.1134,-3.1054,-3.1033,-3.1034,-3.0964,-3.0954,-3.0903,-3.0882,-3.0872,-3.0793,-3.0759,-3.0689,-3.0636,-3.0601,-3.0597,-3.0574,-3.0616,-3.0607,-3.0633,-3.0631,-3.0731,-3.074,-3.0619,-3.062,-3.0621,0,-3.1275,-3.1273,-3.1191,-3.1174,-3.1141,-3.1115,-3.109,-3.1014,-3.0991,-3.0927,-3.0924,-3.0884,-3.0848,-3.0797,-3.0734,-3.0692,-3.0665,-3.0703,-3.0659,-3.0678,-3.0664,-3.0664,-3.0662,-3.0713,-3.0715,-3.0717,-3.0718,0,-3.1382,-3.1348,-3.1316,-3.1272,-3.1244,-3.1206,-3.1163,-3.1153,-3.1067,-3.1045,-3.1008,-3.0981,-3.0925,-3.0885,-3.0834,-3.0795,-3.0741,-3.0732,-3.0735,-3.0755,-3.0778,-3.0764,-3.0642,-3.073,-3.0729,-3.0728,-3.0727,-3.0727,-3.147,-3.1463,-3.1404,-3.137,-3.1329,-3.1291,-3.1276,-3.1223,-3.1192,-3.114,-3.1097,-3.1064,-3.1006,-3.0931,-3.0896,-3.0868,-3.0842,-3.0846,-3.0847,-3.0849,-3.0856,-3.0784,-3.0858,-3.0858,-3.0857,-3.0857,-3.0857,0,-3.1572,-3.1529,-3.1498,-3.144,-3.1413,-3.1365,-3.1314,-3.1294,-3.1266,-3.1217,-3.1182,-3.1139,-3.1099,-3.1033,-3.0987,-3.0977,-3.0951,-3.0968,-3.0967,-3.0958,-3.0883,-3.0885,-3.0989,-3.0989,-3.0989,-3.0989,-3.0989,-3.0989,-3.1621,-3.1606,-3.1565,-3.1528,-3.1485,-3.1452,-3.1427,-3.139,-3.135,-3.1305,-3.1272,-3.1229,-3.1171,-3.112,-3.1081,-3.1062,-3.1048,-3.1072,-3.1045,-3.0976,-3.0964,-3.0952,-3.0953,-3.107,-3.107,-3.1122,-3.1123,-3.1123]}]]